User: anonymous   Login
Location: Grandview
(34.8900°N, 117.1058°W)
Time: 18:58:51
(UTC-08:00)
Language:

KKS-1 - Orbit

View from above orbital plane
View from above orbital plane
View from above satellite
View from above satellite

Ground track
Ground track

The orbit data is extracted from the following two-line orbital elements,

1 33499U 09002H   18053.55854493 +.00000110 +00000-0 +24333-4 0  9990
2 33499 098.3494 231.6296 0008111 301.5323 058.5093 14.75296349487856
Epoch (UTC): 22 February 2018 13:24:18
Eccentricity: 0.0008111
inclination: 98.3494°
perigee height: 638 km
apogee height: 650 km
right ascension of ascending node: 231.6296°
argument of perigee: 301.5323°
revolutions per day: 14.75296349
mean anomaly at epoch: 58.5093°
orbit number at epoch: 48785

The dashed part of the orbit path shows where the satellite is in the earth's shadow,  

DLR